Devils Lake, ND

10:32 AM CDT on May 23, 2018 (GMT -0500)
Devils Lake Municipal

Weather History for KDVL - November, 2013

Change the Weather History Date:

Tuesday, November 19, 2013

  Actual Average Record
Temperature  
Mean Temperature 32 °F -  
Max Temperature 37 °F 31 °F 53 °F (1990)
Min Temperature 26 °F 18 °F -4 °F (1950)
Degree Days  
Heating Degree Days 34    
Moisture  
Dew Point 23 °F    
Average Humidity 71    
Maximum Humidity 80    
Minimum Humidity 60    
Precipitation  
Precipitation 0.00 in - - ()
Sea Level Pressure  
Sea Level Pressure 29.67 in    
Wind  
Wind Speed 14 mph (South)    
Max Wind Speed 25 mph    
Max Gust Speed 31 mph    
Visibility 10 miles    
Events      
Averages and records for this station are not official NWS values.
T = Trace of Precipitation, MM = Missing Value Source: NWS Daily Summary

Daily Weather History Graph

Daily Weather History Graph

Search for Another Location

Airport or City:

Astronomy

Nov. 19, 2013 Rise Set
Actual Time 7:48 AM CST 4:53 PM CST
Civil Twilight 7:14 AM CST 5:27 PM CST
Nautical Twilight 6:36 AM CST 6:05 PM CST
Astronomical Twilight 5:59 AM CST 6:42 PM CST
Moon 6:44 PM CST (11/19) 9:30 AM CST (11/19)
Length of Visible Light 10h 13m
Length of Day
9h 04m
Waning Gibbous, 96% of the Moon is Illuminated
Nov 19
Waning Gibbous
Nov 25
Last Quarter
Dec 2
New
Dec 9
First Quarter
Dec 17
Full

Hourly Weather History & Observations

Time (CST) Temp. Windchill Dew Point Humidity Pressure Visibility Wind Dir Wind Speed Gust Speed Precip Events Conditions
12:15 AM 28.4 °F 17.0 °F 19.4 °F 69% 29.97 in 10.0 mi SSE 15.0 mph - N/A   Clear
12:35 AM 28.4 °F 17.5 °F 19.4 °F 69% 29.96 in 10.0 mi SE 13.8 mph - N/A   Clear
12:55 AM 28.4 °F 18.5 °F 19.4 °F 69% 29.95 in 10.0 mi SE 11.5 mph - N/A   Clear
1:15 AM 28.4 °F 18.5 °F 19.4 °F 69% 29.94 in 10.0 mi SSE 11.5 mph - N/A   Clear
1:35 AM 28.4 °F 17.0 °F 19.4 °F 69% 29.94 in 10.0 mi SE 15.0 mph - N/A   Clear
1:55 AM 28.4 °F 18.0 °F 21.2 °F 74% 29.93 in 10.0 mi SE 12.7 mph - N/A   Clear
2:15 AM 28.4 °F 18.0 °F 19.4 °F 69% 29.92 in 10.0 mi SSE 12.7 mph - N/A   Clear
2:35 AM 28.4 °F 16.6 °F 21.2 °F 74% 29.91 in 10.0 mi SSE 16.1 mph - N/A   Clear
2:55 AM 28.4 °F 17.0 °F 19.4 °F 69% 29.91 in 10.0 mi SSE 15.0 mph - N/A   Clear
3:15 AM 28.4 °F 17.0 °F 21.2 °F 74% 29.90 in 10.0 mi SSE 15.0 mph - N/A   Clear
3:35 AM 28.4 °F 17.5 °F 19.4 °F 69% 29.89 in 10.0 mi SSE 13.8 mph - N/A   Clear
3:55 AM 26.6 °F 14.3 °F 19.4 °F 74% 29.88 in 10.0 mi SSE 16.1 mph - N/A   Clear
4:15 AM 26.6 °F 15.2 °F 19.4 °F 74% 29.87 in 10.0 mi SSE 13.8 mph 18.4 mph N/A   Clear
4:35 AM 26.6 °F 14.3 °F 19.4 °F 74% 29.85 in 10.0 mi SSE 16.1 mph - N/A   Clear
4:55 AM 28.4 °F 15.8 °F 21.2 °F 74% 29.84 in 10.0 mi SSE 18.4 mph - N/A   Clear
5:15 AM 28.4 °F 16.6 °F 21.2 °F 74% 29.84 in 10.0 mi SSE 16.1 mph 21.9 mph N/A   Clear
5:35 AM 28.4 °F 18.0 °F 21.2 °F 74% 29.83 in 10.0 mi SSE 12.7 mph - N/A   Clear
5:55 AM 28.4 °F 17.0 °F 21.2 °F 74% 29.83 in 10.0 mi SSE 15.0 mph - N/A   Clear
6:15 AM 28.4 °F 16.2 °F 21.2 °F 74% 29.81 in 10.0 mi SSE 17.3 mph - N/A   Clear
6:35 AM 28.4 °F 16.2 °F 21.2 °F 74% 29.80 in 10.0 mi SSE 17.3 mph - N/A   Clear
6:55 AM 28.4 °F 17.5 °F 21.2 °F 74% 29.79 in 10.0 mi SSE 13.8 mph - N/A   Clear
7:15 AM 28.4 °F 17.0 °F 21.2 °F 74% 29.78 in 10.0 mi SSE 15.0 mph - N/A   Clear
7:35 AM 30.2 °F 17.8 °F 21.2 °F 69% 29.77 in 10.0 mi SSE 19.6 mph 24.2 mph N/A   Scattered Clouds
7:55 AM 30.2 °F 17.4 °F 21.2 °F 69% 29.76 in 10.0 mi SSE 20.7 mph 26.5 mph N/A   Mostly Cloudy
8:15 AM 30.2 °F 19.8 °F 21.2 °F 69% 29.75 in 10.0 mi SSE 13.8 mph - N/A   Overcast
8:35 AM 30.2 °F 18.5 °F 21.2 °F 69% 29.75 in 10.0 mi SSE 17.3 mph 20.7 mph N/A   Overcast
8:55 AM 30.2 °F 18.9 °F 21.2 °F 69% 29.74 in 10.0 mi SSE 16.1 mph - N/A   Overcast
9:15 AM 30.2 °F 16.8 °F 21.2 °F 69% 29.73 in 10.0 mi SSE 23.0 mph - N/A   Overcast
9:35 AM 32.0 °F 20.5 °F 21.2 °F 64% 29.71 in 10.0 mi SSE 18.4 mph 26.5 mph N/A   Mostly Cloudy
9:55 AM 32.0 °F 19.2 °F 23.0 °F 69% 29.70 in 10.0 mi SSE 23.0 mph 26.5 mph N/A   Partly Cloudy
10:15 AM 32.0 °F 20.5 °F 23.0 °F 69% 29.69 in 10.0 mi SSE 18.4 mph 26.5 mph N/A   Clear
10:35 AM 33.8 °F 22.8 °F 23.0 °F 65% 29.67 in 10.0 mi SSE 18.4 mph 24.2 mph N/A   Clear
10:55 AM 33.8 °F 22.5 °F 23.0 °F 65% 29.66 in 10.0 mi SSE 19.6 mph 27.6 mph N/A   Clear
11:15 AM 33.8 °F 21.0 °F 23.0 °F 65% 29.64 in 10.0 mi SSE 25.3 mph 31.1 mph N/A   Clear
11:35 AM 33.8 °F 21.6 °F 24.8 °F 70% 29.63 in 10.0 mi SSE 23.0 mph 27.6 mph N/A   Clear
11:55 AM 33.8 °F 21.6 °F 24.8 °F 70% 29.62 in 10.0 mi SSE 23.0 mph 27.6 mph N/A   Clear
12:15 PM 33.8 °F 22.2 °F 24.8 °F 70% 29.61 in 10.0 mi SSE 20.7 mph - N/A   Clear
12:35 PM 33.8 °F 22.5 °F 24.8 °F 70% 29.59 in 10.0 mi SSE 19.6 mph 23.0 mph N/A   Clear
12:55 PM 35.6 °F 25.2 °F 24.8 °F 65% 29.57 in 10.0 mi SSE 18.4 mph 23.0 mph N/A   Clear
1:15 PM 35.6 °F 25.2 °F 24.8 °F 65% 29.56 in 10.0 mi SSE 18.4 mph 21.9 mph N/A   Clear
1:35 PM 35.6 °F 24.8 °F 24.8 °F 65% 29.55 in 10.0 mi SSE 19.6 mph - N/A   Clear
1:55 PM 35.6 °F 25.5 °F 24.8 °F 65% 29.54 in 10.0 mi SSE 17.3 mph - N/A   Clear
2:15 PM 37.4 °F 28.9 °F 26.6 °F 65% 29.54 in 10.0 mi SSE 13.8 mph - N/A   Clear
2:35 PM 37.4 °F 28.9 °F 26.6 °F 65% 29.55 in 10.0 mi South 13.8 mph - N/A   Clear
2:55 PM 37.4 °F 28.9 °F 26.6 °F 65% 29.54 in 10.0 mi South 13.8 mph - N/A   Clear
3:15 PM 37.4 °F 28.9 °F 24.8 °F 60% 29.54 in 10.0 mi South 13.8 mph 19.6 mph N/A   Partly Cloudy
3:35 PM 37.4 °F 27.5 °F 24.8 °F 60% 29.52 in 10.0 mi South 18.4 mph 23.0 mph N/A   Partly Cloudy
3:55 PM 37.4 °F 27.8 °F 26.6 °F 65% 29.52 in 10.0 mi South 17.3 mph 24.2 mph N/A   Scattered Clouds
4:15 PM 37.4 °F 29.8 °F 26.6 °F 65% 29.52 in 10.0 mi South 11.5 mph - N/A   Scattered Clouds
4:35 PM 35.6 °F 27.1 °F 26.6 °F 70% 29.52 in 10.0 mi South 12.7 mph - N/A   Partly Cloudy
4:55 PM 35.6 °F 28.6 °F 26.6 °F 70% 29.52 in 10.0 mi South 9.2 mph - N/A   Clear
5:15 PM 35.6 °F 28.6 °F 24.8 °F 65% 29.52 in 10.0 mi South 9.2 mph - N/A   Clear
5:35 PM 35.6 °F 28.6 °F 26.6 °F 70% 29.52 in 10.0 mi South 9.2 mph - N/A   Clear
5:55 PM 33.8 °F 26.4 °F 26.6 °F 75% 29.51 in 10.0 mi South 9.2 mph - N/A   Clear
6:15 PM 33.8 °F 27.7 °F 26.6 °F 75% 29.51 in 10.0 mi South 6.9 mph - N/A   Clear
6:35 PM 33.8 °F 26.4 °F 24.8 °F 70% 29.51 in 10.0 mi South 9.2 mph - N/A   Clear
6:55 PM 33.8 °F 25.8 °F 26.6 °F 75% 29.50 in 10.0 mi South 10.4 mph - N/A   Clear
7:15 PM 33.8 °F 27.0 °F 26.6 °F 75% 29.51 in 10.0 mi SSW 8.1 mph - N/A   Clear
7:35 PM 33.8 °F 27.7 °F 26.6 °F 75% 29.51 in 10.0 mi SSW 6.9 mph - N/A   Clear
7:55 PM 33.8 °F 27.7 °F 26.6 °F 75% 29.52 in 10.0 mi SSW 6.9 mph - N/A   Clear
8:15 PM 33.8 °F 27.0 °F 26.6 °F 75% 29.52 in 10.0 mi SSW 8.1 mph - N/A   Clear
8:35 PM 33.8 °F 26.4 °F 26.6 °F 75% 29.51 in 10.0 mi SSW 9.2 mph - N/A   Clear
8:55 PM 33.8 °F 27.0 °F 26.6 °F 75% 29.52 in 10.0 mi SSW 8.1 mph - N/A   Clear
9:15 PM 35.6 °F 28.6 °F 26.6 °F 70% 29.52 in 10.0 mi SW 9.2 mph - N/A   Clear
9:35 PM 33.8 °F 26.4 °F 26.6 °F 75% 29.52 in 10.0 mi WSW 9.2 mph - N/A   Clear
9:55 PM 33.8 °F 25.8 °F 24.8 °F 70% 29.53 in 10.0 mi WSW 10.4 mph - N/A   Clear
10:15 PM 32.0 °F 24.2 °F 24.8 °F 75% 29.53 in 10.0 mi WSW 9.2 mph - N/A   Clear
10:35 PM 32.0 °F 24.8 °F 24.8 °F 75% 29.54 in 10.0 mi WSW 8.1 mph - N/A   Clear
10:55 PM 30.2 °F 23.4 °F 24.8 °F 80% 29.55 in 10.0 mi West 6.9 mph - N/A   Clear
11:15 PM 28.4 °F 21.2 °F 23.0 °F 80% 29.55 in 10.0 mi West 6.9 mph - N/A   Clear
11:35 PM 28.4 °F 22.2 °F 21.2 °F 74% 29.56 in 10.0 mi West 5.8 mph - N/A   Clear
11:55 PM 28.4 °F 22.2 °F 23.0 °F 80% 29.57 in 10.0 mi West 5.8 mph - N/A   Clear